APSTAR 5 (TELSTAR 18)

导读 | 星芒AI

APSTAR 5(又名 Telstar 18)是由劳拉空间系统公司制造的一颗通信卫星,由亚洲卫星公司运营。该卫星于2004年发射,搭载在波音702平台上,主要提供跨太平洋地区的固定卫星服务(FSS)和直接到户(DTH)广播服务。它覆盖亚洲、澳大利亚和美洲部分地区,配备C波段和Ku波段转发器,支持电视广播、企业通信和互联网服务。APSTAR 5在轨运行多年,为区域通信基础设施提供了重要支持。

基本信息
目录编号:
28364
目录名称:
APSTAR 5 (TELSTAR 18)
国际标识:
2004-024A
轨道中心:
EARTH
卫星名称:
APSTAR 5 (TELSTAR 18)
卫星全名:
--
卫星状态:
在轨 (已飞行7795 天)
发射日期:
2004-06-29 UTC
国别 :
中国 (CN)
星等 :
--
轨道信息
数据来源 国际轨道数据 AOE轨道数据
星历时间 2025-10-31T17:54:05+0800
17小时前
查看轨道信息
2025-10-30T23:00:00+0800
1天前
查看轨道信息
半长轴 42522.065km 42521.463km
偏心率 0.0001909 0.000229
轨道倾角 6.390° 6.388°
近地点辐角 186.213° 183.816°
升交点赤经 72.458° 72.469°
平近点角 5.307° 86.979°
近地点 36135.812km 36133.59km
远地点 36152.048km 36153.066km
周期 1454.391分钟 1454.360分钟
每日圈数 0.990105 0.990126
详细信息
使用方式:
暂无
2D轨道图
3D轨道图
轨道高度分析图
轨道倾角分析图
轨道综合分析图
查看轨道综合分析图